Maersk Barry — OYJE2 — position and weather

sailwx.info

Track history (hours):
 
Tides and Currents Weather Stations Pressure Air Temp Water Temp Dewpoint Dewpoint Depression Visibility Wind Speed Wind Dir Waves Ship Positions

Maersk Barry

Last reported at 2014-Oct-26 01:32 UTC. Time now 2014-Oct-31 23:40 UTC.
Position N 30°56' E 032°19'.

Length 175 m; draft 8.6 m.

Type: Tanker. MMSI: 219127000.

Date/timePositionNaut miles runAvg speedWind from/ knotsBaromVisibWave heightAir tempDewpointWater temp
2014-Oct-26 01:32N 30°56' E 032°19'9 9.0
2014-Oct-26 00:32N 31°05' E 032°18'9 9.1
2014-Oct-25 23:32N 31°14' E 032°18'8 1.2
2014-Oct-25 16:22N 31°23' E 032°19'0 0.0
2014-Oct-25 11:28N 31°23' E 032°19'3 2.7
2014-Oct-25 10:30N 31°25' E 032°18'1110.3
2014-Oct-25 09:29N 31°34' E 032°10'40310.6
2014-Oct-23 19:30N 36°33' E 026°46'3310.8
2014-Oct-23 16:28N 37°05' E 026°37'1111.9
2014-Oct-23 15:33N 37°11' E 026°25'1211.8
2014-Oct-23 14:33N 37°17' E 026°13'1111.4
2014-Oct-23 13:33N 37°23' E 026°00'1110.9
2014-Oct-23 12:33N 37°29' E 025°49'1110.8
2014-Oct-23 11:33N 37°38' E 025°42'1111.1
2014-Oct-23 10:33N 37°49' E 025°36'1110.3
2014-Oct-23 09:32N 37°58' E 025°31'223 6.2
2014-Oct-21 21:28N 40°53' E 028°30'1311.2
2014-Oct-21 20:19N 40°55' E 028°47'5 6.1
2014-Oct-21 19:33N 40°57' E 028°52'0 0.0
2014-Oct-21 18:08N 40°57' E 028°52'0 0.0
2014-Oct-21 17:32N 40°57' E 028°52'0 0.0
2014-Oct-21 16:08N 40°57' E 028°52'0 0.1
2014-Oct-21 15:20N 40°57' E 028°52'0 0.1
2014-Oct-21 14:14N 40°57' E 028°52'0 0.0
2014-Oct-21 12:08N 40°57' E 028°52'0 0.0
2014-Oct-21 09:26N 40°57' E 028°52'0 0.0
2014-Oct-21 08:20N 40°57' E 028°52'0 0.3
2014-Oct-21 07:19N 40°57' E 028°53'4 5.8
2014-Oct-21 06:33N 40°59' E 028°58'34 3.8
2014-Oct-20 21:33N 41°32' E 029°11'324 9.0
2014-Oct-19 09:34N 46°36' E 031°46'9 8.7
2014-Oct-19 08:33N 46°41' E 031°56'8 8.4
2014-Oct-19 07:34N 46°50' E 031°55'7 7.4
2014-Oct-19 06:33N 46°56' E 032°00'1 0.6
2014-Oct-19 05:32N 46°57' E 031°60'0 0.0
2014-Oct-19 04:32N 46°57' E 031°60'0 0.0
2014-Oct-19 03:32N 46°57' E 031°60'0 0.0
2014-Oct-19 02:32N 46°57' E 031°60'0 0.0
2014-Oct-19 01:32N 46°57' E 031°60'0 0.0
2014-Oct-19 00:32N 46°57' E 031°60'0 0.0
2014-Oct-18 23:32N 46°57' E 031°60'0 0.0
2014-Oct-18 22:29N 46°57' E 031°60'0 0.0
2014-Oct-18 21:32N 46°57' E 031°60'0 0.0
2014-Oct-18 20:32N 46°57' E 031°60'0 0.0
2014-Oct-18 19:32N 46°57' E 031°60'0 0.0
2014-Oct-18 18:32N 46°57' E 031°60'0 0.0
2014-Oct-18 17:32N 46°57' E 031°60'0 0.0
2014-Oct-18 16:32N 46°57' E 031°60'0 0.0
2014-Oct-18 15:32N 46°57' E 031°60'0 0.0
2014-Oct-18 14:32N 46°57' E 031°60'0 0.0
2014-Oct-18 13:32N 46°57' E 031°60'0 0.0
2014-Oct-18 12:32N 46°57' E 031°60'0 0.0
2014-Oct-18 11:29N 46°57' E 031°60'0 0.0
2014-Oct-18 10:32N 46°57' E 031°60'0 0.0
2014-Oct-18 09:32N 46°57' E 031°60'0 0.0
2014-Oct-18 08:32N 46°57' E 031°60'0 0.0
2014-Oct-18 07:29N 46°57' E 031°60'0 0.0
2014-Oct-18 06:32N 46°57' E 031°60'0 0.0
2014-Oct-18 05:32N 46°57' E 031°60'0 0.0
2014-Oct-18 04:32N 46°57' E 031°60'0 0.0
2014-Oct-18 03:32N 46°57' E 031°60'0 0.0
2014-Oct-18 02:32N 46°57' E 031°60'0 0.0
2014-Oct-18 01:32N 46°57' E 031°60'0 0.0
2014-Oct-18 00:32N 46°57' E 031°60'0 0.0
2014-Oct-17 23:32N 46°57' E 031°60'0 0.0
2014-Oct-17 22:32N 46°57' E 031°60'0 0.0
2014-Oct-17 21:32N 46°57' E 031°60'0 0.0
2014-Oct-17 20:32N 46°57' E 031°60'0 0.0
2014-Oct-17 19:32N 46°57' E 031°60'0 0.0
2014-Oct-17 18:32N 46°57' E 031°60'0 0.0
2014-Oct-17 17:32N 46°57' E 031°60'0 0.0
2014-Oct-17 16:32N 46°57' E 031°60'0 0.0
2014-Oct-17 15:32N 46°57' E 031°60'0 0.0
2014-Oct-17 14:29N 46°57' E 031°60'0 0.0
2014-Oct-17 13:32N 46°57' E 031°60'0 0.0
2014-Oct-17 12:32N 46°57' E 031°60'0 0.0
2014-Oct-17 11:29N 46°57' E 031°60'0 0.0
2014-Oct-17 10:29N 46°57' E 031°60'0 0.0
2014-Oct-17 09:32N 46°57' E 031°60'0 0.0
2014-Oct-17 08:32N 46°57' E 031°60'0 0.0
2014-Oct-17 07:32N 46°57' E 031°60'0 0.0
2014-Oct-17 06:32N 46°57' E 031°60'0 0.0
2014-Oct-17 05:32N 46°57' E 031°60'0 0.0
2014-Oct-17 04:32N 46°57' E 031°60'0 0.0
2014-Oct-17 03:29N 46°57' E 031°60'0 0.0
2014-Oct-17 02:32N 46°57' E 031°60'0 0.0
2014-Oct-17 01:32N 46°57' E 031°60'0 0.0
2014-Oct-17 00:32N 46°57' E 031°60'0 0.0
2014-Oct-16 23:32N 46°57' E 031°60'0 0.0
2014-Oct-16 22:32N 46°57' E 031°60'0 0.0
2014-Oct-16 21:32N 46°57' E 031°60'0 0.0
2014-Oct-16 20:32N 46°57' E 031°60'0 0.0
2014-Oct-16 19:32N 46°57' E 031°60'0 0.0
2014-Oct-16 18:32N 46°57' E 031°60'0 0.0
2014-Oct-16 17:32N 46°57' E 031°60'0 0.0
2014-Oct-16 16:32N 46°57' E 031°60'0 0.0
2014-Oct-16 15:29N 46°57' E 031°60'0 0.0
2014-Oct-16 14:32N 46°57' E 031°60'0 0.0
2014-Oct-16 13:32N 46°57' E 031°60'0 0.0
2014-Oct-16 12:32N 46°57' E 031°60'0 0.0
2014-Oct-16 11:32N 46°57' E 031°60'0 0.0
2014-Oct-16 10:32N 46°57' E 031°60'0 0.0
2014-Oct-16 09:32N 46°57' E 031°60'0 0.0
2014-Oct-16 08:32N 46°57' E 031°60'0 0.0
2014-Oct-16 07:29N 46°57' E 031°60'0 0.5
2014-Oct-16 06:34N 46°56' E 032°00'0 0.0
2014-Oct-16 05:31N 46°56' E 032°00'0 0.0
2014-Oct-16 04:31N 46°56' E 032°00'0 0.0
2014-Oct-16 03:31N 46°56' E 032°00'0 0.0
2014-Oct-16 02:31N 46°56' E 032°00'  
Track history (hours):
 
Tides and Currents Weather Stations Pressure Air Temp Water Temp Dewpoint Dewpoint Depression Visibility Wind Speed Wind Dir Waves Ship Positions

Maersk Barry

Last reported at 2014-Oct-26 01:32 UTC. Time now 2014-Oct-31 23:40 UTC.
Position N 30°56' E 032°19'.

Length 175 m; draft 8.6 m.

Type: Tanker. MMSI: 219127000.

Date/timePositionNaut miles runAvg speedWind from/ knotsBaromVisibWave heightAir tempDewpointWater temp
2014-Oct-26 01:32N 30°56' E 032°19'9 9.0
2014-Oct-26 00:32N 31°05' E 032°18'9 9.1
2014-Oct-25 23:32N 31°14' E 032°18'8 1.2
2014-Oct-25 16:22N 31°23' E 032°19'0 0.0
2014-Oct-25 11:28N 31°23' E 032°19'3 2.7
2014-Oct-25 10:30N 31°25' E 032°18'1110.3
2014-Oct-25 09:29N 31°34' E 032°10'40310.6
2014-Oct-23 19:30N 36°33' E 026°46'3310.8
2014-Oct-23 16:28N 37°05' E 026°37'1111.9
2014-Oct-23 15:33N 37°11' E 026°25'1211.8
2014-Oct-23 14:33N 37°17' E 026°13'1111.4
2014-Oct-23 13:33N 37°23' E 026°00'1110.9
2014-Oct-23 12:33N 37°29' E 025°49'1110.8
2014-Oct-23 11:33N 37°38' E 025°42'1111.1
2014-Oct-23 10:33N 37°49' E 025°36'1110.3
2014-Oct-23 09:32N 37°58' E 025°31'223 6.2
2014-Oct-21 21:28N 40°53' E 028°30'1311.2
2014-Oct-21 20:19N 40°55' E 028°47'5 6.1
2014-Oct-21 19:33N 40°57' E 028°52'0 0.0
2014-Oct-21 18:08N 40°57' E 028°52'0 0.0
2014-Oct-21 17:32N 40°57' E 028°52'0 0.0
2014-Oct-21 16:08N 40°57' E 028°52'0 0.1
2014-Oct-21 15:20N 40°57' E 028°52'0 0.1
2014-Oct-21 14:14N 40°57' E 028°52'0 0.0
2014-Oct-21 12:08N 40°57' E 028°52'0 0.0
2014-Oct-21 09:26N 40°57' E 028°52'0 0.0
2014-Oct-21 08:20N 40°57' E 028°52'0 0.3
2014-Oct-21 07:19N 40°57' E 028°53'4 5.8
2014-Oct-21 06:33N 40°59' E 028°58'34 3.8
2014-Oct-20 21:33N 41°32' E 029°11'324 9.0
2014-Oct-19 09:34N 46°36' E 031°46'9 8.7
2014-Oct-19 08:33N 46°41' E 031°56'8 8.4
2014-Oct-19 07:34N 46°50' E 031°55'7 7.4
2014-Oct-19 06:33N 46°56' E 032°00'1 0.6
2014-Oct-19 05:32N 46°57' E 031°60'0 0.0
2014-Oct-19 04:32N 46°57' E 031°60'0 0.0
2014-Oct-19 03:32N 46°57' E 031°60'0 0.0
2014-Oct-19 02:32N 46°57' E 031°60'0 0.0
2014-Oct-19 01:32N 46°57' E 031°60'0 0.0
2014-Oct-19 00:32N 46°57' E 031°60'0 0.0
2014-Oct-18 23:32N 46°57' E 031°60'0 0.0
2014-Oct-18 22:29N 46°57' E 031°60'0 0.0
2014-Oct-18 21:32N 46°57' E 031°60'0 0.0
2014-Oct-18 20:32N 46°57' E 031°60'0 0.0
2014-Oct-18 19:32N 46°57' E 031°60'0 0.0
2014-Oct-18 18:32N 46°57' E 031°60'0 0.0
2014-Oct-18 17:32N 46°57' E 031°60'0 0.0
2014-Oct-18 16:32N 46°57' E 031°60'0 0.0
2014-Oct-18 15:32N 46°57' E 031°60'0 0.0
2014-Oct-18 14:32N 46°57' E 031°60'0 0.0
2014-Oct-18 13:32N 46°57' E 031°60'0 0.0
2014-Oct-18 12:32N 46°57' E 031°60'0 0.0
2014-Oct-18 11:29N 46°57' E 031°60'0 0.0
2014-Oct-18 10:32N 46°57' E 031°60'0 0.0
2014-Oct-18 09:32N 46°57' E 031°60'0 0.0
2014-Oct-18 08:32N 46°57' E 031°60'0 0.0
2014-Oct-18 07:29N 46°57' E 031°60'0 0.0
2014-Oct-18 06:32N 46°57' E 031°60'0 0.0
2014-Oct-18 05:32N 46°57' E 031°60'0 0.0
2014-Oct-18 04:32N 46°57' E 031°60'0 0.0
2014-Oct-18 03:32N 46°57' E 031°60'0 0.0
2014-Oct-18 02:32N 46°57' E 031°60'0 0.0
2014-Oct-18 01:32N 46°57' E 031°60'0 0.0
2014-Oct-18 00:32N 46°57' E 031°60'0 0.0
2014-Oct-17 23:32N 46°57' E 031°60'0 0.0
2014-Oct-17 22:32N 46°57' E 031°60'0 0.0
2014-Oct-17 21:32N 46°57' E 031°60'0 0.0
2014-Oct-17 20:32N 46°57' E 031°60'0 0.0
2014-Oct-17 19:32N 46°57' E 031°60'0 0.0
2014-Oct-17 18:32N 46°57' E 031°60'0 0.0
2014-Oct-17 17:32N 46°57' E 031°60'0 0.0
2014-Oct-17 16:32N 46°57' E 031°60'0 0.0
2014-Oct-17 15:32N 46°57' E 031°60'0 0.0
2014-Oct-17 14:29N 46°57' E 031°60'0 0.0
2014-Oct-17 13:32N 46°57' E 031°60'0 0.0
2014-Oct-17 12:32N 46°57' E 031°60'0 0.0
2014-Oct-17 11:29N 46°57' E 031°60'0 0.0
2014-Oct-17 10:29N 46°57' E 031°60'0 0.0
2014-Oct-17 09:32N 46°57' E 031°60'0 0.0
2014-Oct-17 08:32N 46°57' E 031°60'0 0.0
2014-Oct-17 07:32N 46°57' E 031°60'0 0.0
2014-Oct-17 06:32N 46°57' E 031°60'0 0.0
2014-Oct-17 05:32N 46°57' E 031°60'0 0.0
2014-Oct-17 04:32N 46°57' E 031°60'0 0.0
2014-Oct-17 03:29N 46°57' E 031°60'0 0.0
2014-Oct-17 02:32N 46°57' E 031°60'0 0.0
2014-Oct-17 01:32N 46°57' E 031°60'0 0.0
2014-Oct-17 00:32N 46°57' E 031°60'0 0.0
2014-Oct-16 23:32N 46°57' E 031°60'0 0.0
2014-Oct-16 22:32N 46°57' E 031°60'0 0.0
2014-Oct-16 21:32N 46°57' E 031°60'0 0.0
2014-Oct-16 20:32N 46°57' E 031°60'0 0.0
2014-Oct-16 19:32N 46°57' E 031°60'0 0.0
2014-Oct-16 18:32N 46°57' E 031°60'0 0.0
2014-Oct-16 17:32N 46°57' E 031°60'0 0.0
2014-Oct-16 16:32N 46°57' E 031°60'0 0.0
2014-Oct-16 15:29N 46°57' E 031°60'0 0.0
2014-Oct-16 14:32N 46°57' E 031°60'0 0.0
2014-Oct-16 13:32N 46°57' E 031°60'0 0.0
2014-Oct-16 12:32N 46°57' E 031°60'0 0.0
2014-Oct-16 11:32N 46°57' E 031°60'0 0.0
2014-Oct-16 10:32N 46°57' E 031°60'0 0.0
2014-Oct-16 09:32N 46°57' E 031°60'0 0.0
2014-Oct-16 08:32N 46°57' E 031°60'0 0.0
2014-Oct-16 07:29N 46°57' E 031°60'0 0.5
2014-Oct-16 06:34N 46°56' E 032°00'0 0.0
2014-Oct-16 05:31N 46°56' E 032°00'0 0.0
2014-Oct-16 04:31N 46°56' E 032°00'0 0.0
2014-Oct-16 03:31N 46°56' E 032°00'0 0.0
2014-Oct-16 02:31N 46°56' E 032°00'  

Dump ship's entire track history